GOES 18

Last updated on Sun Jun 21 2026 00:02:47 GMT+0000 (Coordinated Universal Time)

1 51850U 22021A 26170.93705689 .00000091 00000+0 00000+0 0 9997 2 51850 0.0372 171.7340 0000425 325.4670 331.2805 1.00271950 6625
UTC large
Height (km)
Speed (km/s)
/
Latitude / Longitude
Inclination (degrees)
Orbital Period (minutes)
Azimuth
Elevation
Range (km)
Doppler Factor

Next 0 passes for location: London (51.5072 / 0.1276)

No passes found over London.
GOES 18